SCP
0 0 0 0 0 0 0 0 0 0 0 0 0 0 0 -0 0 0 0 0 0 0 0 0 0 0 0 0 0 0 0 0 0 0 0 0 0 0 0 0 0 0 0 0 0 0 0 0 0
0 0 0 0 0 0 0 0 0 0 0 0 0 0 0 0 0 0 0 0 0 0 0 0 0 0 0 0 0 0 0 0 0 0 0 0 0 0 0 0 0 0 0 0 0 0 0 0 0
0 0 0 0 0 0 0 0 0 0 0 0 0 0 0 0 0 0 0 0 0 0 0 0 0 0 0 0 0 0 0 0 0 0 0 0 0 0 0 0 0 0 0 0 0 0 0 0 0
0 0 0 0 0 0 0 0 0 0 0 0 0 0 0 0 0 0 0 0 0 0 0 0 0 0 0 0 0 0 0 0 0 0 0 0 0 0 0 0 0 0 0 0 0 0 0 0 0
0 0 0 0 0 0 0 0 0 0 0 0 0 0 0 0 0 0 0 0 0 0 0 0 0 0 0 0 0 0 0 0 0 0 0 0 0 0 0 0 0 0 0 0 0 0 0 0 0
0 0 0 0 0 0 0 0 0 0 0 0 0 0 0 0 0 0 0 0 0 0 0 0 0 0 0 0 0 0 0 0 0 0 0 0 0 0 0 0 0 0 0 0 0 0 0 0 0
0 0 0 0 0 0 0 0 0 0 0 0 0 0 0 0 0 0 0 0 0 0 0 0 0 0 0 0 0 0 0 0 0 0 0 0 0 0 0 0 0 0 0 0 0 0 0 0 0
0 0 0 0 0 0 0 0 0 0 0 0 0 0 0 0 0 0 0 0 0 0 0 0 0 0 0 0 0 0 0 0 0 0 0 0 0 0 0 0 0 0 0 0 0 0 0 0 0
0 0 0 0 0 0 0 0 0 0 0 0 0 0 0 0 0 0 0 0 0 0 0 0 0 0 0 0 0 0 0 0 0 0 0 0 0 0 0 0 0 0 0 0 0 0 0 0 0
0 0 0 0 0 0 0 0 0 0 0 0 0 0 0 0 0 0 0 0 0 0 0 0 0 0 0 0 0 0 0 0 0 0 0 0 0 0 0 0 0 0 0 0 0 0 0 0 0
0 0 0 0 0 0 0 0 0 0 0 0 0 0 0 0 0 0 0 0 0 0 0 0 0 0 0 0 0 0 0 0 0 0 0 0 0 0 0 0 0 0 0 0 0 0 0 0 0
0 0 0 0 0 0 0 0 0 0 0 0 0 0 0 0 0 0 0 0 0 0 0 0 0 0 0 0 0 0 0 0 0 0 0 0 0 0 0 0 0 0 0 0 0 0 0 0 0
0 0 0 0 0 0 0 0 0 0 0 0 0 0 0 0 0 0 0 0 0 0 0 0 0 0 0 0 0 0 0 0 0 0 0 0 0 0 0 0 0 0 0 0 0 0 0 0 0
0 0 0 0 0 0 0 0 0 0 0 0 0 0 0 0 0 0 0 0 0 0 0 0 0 0 0 0 0 0 0 0 0 0 0 0 0 0 0 0 0 0 0 0 0 0 0 0 0
0 0 0 0 0 0 0 0 0 0 0 0 0 0 0 0 0 0 0 0 0 0 0 0 0 0 0 0 0 0 0 0 0 0 0 0 0 0 0 0 0 0 0 0 0 0 0 0 0
0 0 0 0 0 0 0 0 0 0 0 0 0 0 0 0 0 0 0 0 0 0 0 0 0 0 0 0 0 0 0 0 0 0 0 0 0 0 0 0 0 0 0 0 0 0 0 0 0
0 0 0 0 0 0 0 0 0 0 0 0 0 0 0 0 0 0 0 0 0 0 0 0 0 0 0 0 0 0 0 0 0 0 0 0 0 0 0 0 0 0 0 0 0 0 0 0 0
0 0 0 0 0 0 0 0 0 0 0 0 0 0 0 0 0 0 0 0 0 0 0 0 0 0 0 0 0 0 0 0 0 0 0 0 0 0 0 0 0 0 0 0 0 0 0 0 0
0 0 0 0 0 0 0 0 0 0 0 0 0 0 0 0 0 0 0 0 0 0 0 0 0 0 0 0 0 0 0 0 0 0 0 0 0 0 0 0 0 0 0 0 0 0 0 0 0
0 0 0 0 0 0 0 0 0 0 0 0 0 0 0 0 0 0 0 0 0 0 0 0 0 0 0 0 0 0 0 0 0 0 0 0 0 0 0 0 0 0 0 0 0 0 0 0 0
0 0 0 0 0 0 0 0 0 0 0 0 0 0 0 0 0 0 0 0 0 0 0 0 0 0 0 0 0 0 0 0 0 0 0 0 0 0 0 0 0 0 0 0 0 0 0 0 0
0 0 0 0 0 0 0 0 0 0 0 0 0 0 0 0 0 0 0 0 0 0 0 0 0 0 0 0 0 0 0 0 0 0 0 0 0 0 0 0 0 0 0 0 0 0 0 0 0
0 0 0 0 0 0 0 0 0 0 0 0 0 0 0 0 0 0 0 0 0 0 0 0 0 0 0 0 0 0 0 0 0 0 0 0 0 0 0 0 0 0 0 0 0 0 0 0 0
0 0 0 0 0 0 0 0 0 0 0 0 0 0 0 0 0 0 0 0 0 0 0 0 0 0 0 0 0 0 0 0 0 0 0 0 0 0 0 0 0 0 0 0 0 0 0 0 0
0 0 0 0 0 0 0 0 0 0 0 0 0 0 0 0 0 0 0 0 0 0 0 0 0 0 0 0 0 0 0 0 0 0 0 0 0 0 0 0 0 0 0 0 0 0 0 0 0
0 0 0 0 0 0 0 0 0 0 0 0 0 0 0 0 0 0 0 0 0 0 0 0 0 0 0 0 0 0 0 0 0 0 0 0 0 0 0 0 0 0 0 0 0 0 0 0 0
0 0 0 0 0 0 0 0 0 0 0 0 0 0 0 0 0 0 0 0 0 0 0 0 0 0 0 0 0 0 0 0 0 0 0 0 0 0 0 0 0 0 0 0 0 0 0 0 0
0 0 0 0 0 0 0 0 0 0 0 0 0 0 0 0 0 0 0 1 1 1 1 0 0 0 0 0 0 0 0 0 0 0 0 0 0 0 0 0 0 0 0 0 0 0 0 0 0
0 0 0 0 0 0 0 0 0 0 0 0 0 0 0 0 0 0 0 0 1 1 1 1 0 0 0 0 0 0 0 0 0 0 0 0 0 0 0 0 0 0 0 0 0 0 0 0 0
0 0 0 0 0 0 0 0 0 0 0 0 0 0 0 0 0 0 0 0 0 1 1 0 0 0 0 0 0 0 0 0 0 0 0 0 0 0 0 0 0 0 0 0 0 0 0 0 0
Wind_Speed
11 9 6 5 2 9 15 12 10 9 8 9 9 8 10 11 10 10 7 6 6 7 9 9 9 9 10 10 11 12 12 13 13 13 14 14 15 15 15 15 15 15 15 15 15 14 14 14 15
7 5 6 3 6 12 14 12 12 12 9 9 9 10 11 12 10 9 7 6 6 8 9 10 10 10 11 11 11 11 12 12 13 13 13 14 15 15 15 14 14 15 14 14 14 14 14 14 14
6 6 4 5 13 13 13 11 11 11 8 7 8 9 9 9 8 7 8 7 7 8 9 11 10 11 11 11 11 11 12 12 13 13 14 14 14 14 14 14 14 14 13 14 14 14 14 13 14
5 5 1 9 17 15 12 10 9 10 9 8 8 10 10 8 6 8 9 7 8 8 9 12 9 10 11 11 11 12 12 12 13 13 13 14 14 14 14 14 13 13 13 13 13 13 13 12 13
5 1 8 13 16 13 11 9 7 9 8 9 10 12 11 8 10 11 9 7 8 9 9 12 9 10 11 11 11 12 12 12 13 13 13 14 14 14 13 13 13 13 13 12 12 12 12 11 11
3 0 9 13 14 11 10 8 8 11 11 10 11 12 10 8 9 9 9 7 8 8 9 12 10 9 10 11 11 11 12 12 12 13 13 13 13 12 12 12 12 13 12 12 11 11 10 10 10
2 6 11 13 12 11 9 7 8 9 10 9 8 11 9 9 9 9 8 7 7 7 8 8 10 10 10 10 11 11 11 11 12 12 12 12 12 11 11 11 11 11 11 10 10 10 9 9 8
2 3 10 10 11 11 9 8 8 8 10 8 5 8 10 10 9 9 8 8 7 7 8 7 7 7 8 10 11 10 10 10 10 10 10 10 10 10 9 9 10 10 9 9 9 9 8 8 7
3 3 10 10 9 10 9 9 8 7 10 8 7 10 13 13 10 9 8 8 7 6 5 6 7 7 6 8 10 9 9 8 7 8 7 4 5 8 7 11 9 8 8 8 7 7 7 7 7
1 7 12 8 8 9 8 7 8 8 10 10 11 13 14 12 10 9 8 8 7 6 5 5 5 6 5 5 5 4 5 6 4 5 5 4 5 4 6 10 7 6 6 6 6 5 6 5 5
5 8 9 8 8 9 9 8 6 7 8 10 13 14 13 11 9 8 7 7 7 6 5 6 5 4 4 4 3 3 3 4 4 5 4 3 3 4 4 4 6 6 6 5 6 6 3 2 2
6 8 7 7 8 8 8 8 7 6 9 11 13 14 13 11 9 7 7 7 7 5 5 5 5 4 3 2 3 3 3 2 3 4 2 3 2 2 3 2 2 2 2 2 2 2 3 2 2
7 8 8 8 8 8 8 8 8 9 11 12 14 13 12 10 9 7 6 5 6 5 5 5 4 4 3 2 1 2 2 2 3 2 2 1 2 2 2 1 1 1 2 3 1 1 2 1 2
7 9 9 8 9 8 8 8 7 10 11 13 13 12 10 9 8 8 6 5 5 5 5 5 4 4 4 3 2 1 2 2 1 1 2 1 1 1 1 2 1 1 1 1 1 1 1 1 1
8 9 9 7 7 6 7 8 8 11 12 13 12 10 9 8 7 6 6 5 5 5 4 4 4 4 4 3 3 2 2 2 1 1 1 1 1 1 0 0 1 1 1 1 1 1 1 1 1
7 7 7 7 5 5 6 7 10 12 12 12 11 10 9 8 7 6 6 5 4 4 5 4 4 5 4 3 2 1 0 1 1 1 1 1 0 0 1 0 0 0 1 1 1 1 1 0 0
8 5 5 8 5 5 4 6 10 11 12 11 10 10 9 8 8 7 6 6 5 5 5 5 4 3 3 3 3 2 1 1 0 0 0 1 1 1 2 1 0 2 1 1 2 1 1 0 0
5 5 5 5 6 6 5 4 9 11 11 11 10 9 9 8 8 8 7 6 6 6 5 5 5 4 3 3 3 2 2 2 1 1 0 1 1 1 2 2 1 2 1 1 0 1 1 1 1
3 3 4 4 5 5 5 4 8 11 11 11 11 10 9 8 8 8 8 7 7 6 6 5 5 5 4 3 3 2 2 2 1 2 1 2 2 2 3 2 1 2 2 2 2 2 2 2 1
6 6 5 6 4 4 4 5 6 10 12 11 11 10 10 9 9 8 8 8 8 7 7 7 6 6 6 3 2 2 1 1 1 1 1 2 2 3 3 2 3 2 2 3 3 3 2 2 2
7 6 4 5 5 6 5 7 8 9 10 10 11 10 10 10 10 10 9 9 8 8 8 6 6 6 5 4 3 2 2 2 2 2 1 1 2 2 2 3 3 2 3 2 3 3 4 3 3
7 5 5 6 7 5 5 3 6 8 10 12 12 11 11 11 10 10 10 10 9 8 8 7 7 6 5 5 4 4 3 2 1 1 0 1 0 1 1 2 2 3 3 2 4 2 3 4 3
3 3 6 6 6 5 6 5 4 7 8 10 12 12 12 11 11 10 10 9 9 8 8 8 7 6 6 5 5 4 4 2 1 1 1 1 1 0 1 1 2 2 2 2 3 2 3 3 3
7 7 6 7 7 7 5 6 2 4 4 6 9 11 12 11 11 10 10 9 8 8 8 8 7 7 6 6 5 5 4 3 2 2 1 1 1 1 2 1 2 2 2 2 2 2 2 2 3
11 10 7 8 8 5 4 6 2 1 1 3 6 9 11 12 11 11 11 10 9 9 8 8 8 7 6 6 5 4 4 3 3 3 1 1 0 1 2 2 2 2 2 2 2 1 2 2 2
13 12 8 6 6 5 6 5 2 2 1 2 4 7 10 11 11 11 11 10 10 9 9 8 8 7 7 6 5 4 4 3 2 1 1 0 1 2 2 2 2 2 3 3 2 2 1 1 2
12 12 9 8 6 5 5 4 4 4 4 5 6 7 9 10 11 11 11 11 10 10 9 8 8 7 6 6 5 4 4 2 1 1 1 1 1 1 2 2 2 2 2 2 2 2 2 2 2
8 9 7 9 7 7 6 7 5 6 5 6 6 7 8 10 10 11 10 11 10 10 9 8 8 7 6 6 5 4 4 3 3 2 2 2 1 2 1 2 2 2 3 3 2 1 2 2 2
10 10 9 8 8 8 6 4 3 3 4 5 6 7 8 9 10 10 10 10 10 9 9 8 8 7 6 5 5 4 4 4 4 3 2 2 2 2 2 2 2 3 3 3 3 3 3 2 3
14 13 12 10 8 8 7 2 6 2 3 4 6 6 7 8 9 10 10 10 10 9 9 8 8 7 7 6 6 5 5 5 4 4 3 3 2 2 2 2 2 3 3 3 3 4 4 4 4
Wind_Direction
178 187 218 234 180 74 66 66 72 78 70 65 62 60 62 47 40 74 88 88 85 87 91 93 75 80 83 84 86 84 85 86 87 88 90 94 97 98 98 98 99 99 99 99 100 103 105 110 113
176 195 229 239 65 76 70 66 70 71 87 92 78 74 75 66 61 91 106 98 96 87 89 80 77 83 85 85 88 88 88 88 88 88 90 93 95 96 98 99 100 99 98 97 98 100 102 106 111
186 233 273 63 60 65 73 74 81 88 89 86 83 66 60 70 80 92 101 114 102 88 90 85 79 79 82 84 87 88 88 88 89 89 90 92 95 97 99 101 101 101 100 98 97 98 99 103 108
217 216 167 72 72 66 76 85 94 99 86 82 94 85 75 59 75 100 113 114 106 103 97 89 81 81 82 83 83 88 90 89 89 88 89 90 94 96 98 99 100 100 99 98 98 100 100 102 107
243 239 89 80 75 76 77 80 81 88 88 92 93 96 86 71 93 108 116 116 105 100 96 94 85 83 82 84 84 84 87 88 88 88 88 89 91 94 96 97 99 99 98 98 98 100 102 106 109
232 88 74 81 83 83 84 84 89 92 98 97 101 100 88 102 110 114 114 108 99 99 100 104 99 87 85 87 89 88 87 87 87 88 87 88 90 94 96 99 100 101 100 99 99 98 98 101 106
358 60 75 82 91 89 83 87 87 96 99 95 103 102 110 116 112 115 110 104 97 96 99 104 116 113 104 92 91 89 88 88 89 89 90 92 93 94 96 98 101 101 101 102 101 99 100 100 103
326 89 87 84 88 91 101 97 91 94 93 102 102 110 125 128 128 122 119 115 107 103 101 107 103 105 117 114 102 94 92 92 92 91 93 100 107 106 109 113 101 101 102 103 101 100 101 103 104
263 83 79 77 84 101 117 114 101 98 109 99 82 94 115 129 137 134 127 121 111 102 100 103 107 108 107 107 115 121 116 108 122 116 113 137 118 114 121 91 99 102 105 106 105 107 112 123 128
322 68 74 70 82 106 120 116 119 126 117 111 107 106 121 138 144 141 134 132 125 121 117 106 99 103 108 103 113 119 118 113 106 97 109 105 91 87 95 107 107 109 115 123 118 127 165 195 148
56 68 86 92 95 111 122 119 123 128 117 123 130 134 141 145 149 145 134 127 123 133 126 121 114 120 121 110 112 103 106 112 116 107 110 100 117 125 124 131 142 147 161 153 147 177 165 133 100
90 82 90 101 113 120 118 119 117 97 96 118 131 139 146 152 152 147 138 134 132 135 130 122 123 121 106 97 108 127 119 112 105 107 110 111 102 97 99 117 113 140 130 125 149 142 121 112 108
102 101 100 109 118 115 119 113 108 105 110 122 131 142 150 153 150 144 135 137 141 147 147 135 133 130 138 134 139 106 103 99 107 109 104 96 121 110 105 84 84 103 118 146 160 140 128 145 163
106 113 113 115 114 125 127 120 123 116 129 134 142 150 155 154 152 148 155 160 165 165 158 149 159 151 156 156 156 133 133 126 97 110 100 82 82 85 105 149 133 107 129 99 195 159 175 191 131
137 132 127 123 130 137 142 128 124 132 144 147 151 154 156 162 164 167 168 173 176 176 169 175 176 165 173 177 182 168 164 136 115 112 128 192 164 114 248 76 211 99 129 152 198 198 194 192 178
174 177 149 132 144 162 208 115 128 148 157 156 159 161 168 174 183 180 177 179 180 176 175 191 197 170 178 192 216 214 140 109 119 143 141 174 74 192 259 239 235 188 228 212 193 234 242 218 221
197 191 142 141 163 172 207 118 136 161 167 165 171 172 178 179 192 186 185 184 183 180 180 186 199 194 190 185 199 203 181 195 182 201 117 130 229 239 250 262 36 241 235 255 272 112 266 257 283
186 178 162 152 158 183 192 142 146 172 181 175 176 180 183 188 192 188 189 187 185 182 183 190 195 197 200 195 199 214 210 201 192 182 195 243 225 237 264 220 207 256 232 243 296 287 252 255 246
214 203 168 140 150 195 197 185 167 176 189 186 185 186 188 191 185 183 187 188 184 182 184 191 200 190 200 205 214 203 200 207 202 191 190 229 245 246 260 287 217 257 260 267 250 242 219 223 205
213 205 172 147 158 216 207 212 184 184 195 196 194 193 194 190 184 185 190 190 191 187 191 192 196 194 201 191 210 221 232 221 221 280 220 244 242 257 243 257 262 262 271 262 257 246 260 250 222
216 221 196 163 165 198 222 208 186 185 198 200 205 203 200 197 192 188 191 193 193 190 194 196 198 195 201 196 201 198 196 226 209 218 207 242 253 253 276 272 280 287 272 261 257 246 245 250 245
211 211 205 186 209 189 233 229 169 183 193 202 206 206 202 197 194 189 187 190 193 192 189 193 194 196 194 202 213 222 220 231 232 254 162 208 257 290 278 281 288 288 291 287 267 256 259 250 252
202 167 200 205 223 229 212 257 151 177 203 201 202 204 203 196 192 190 189 187 189 188 186 184 186 191 195 203 204 224 237 237 221 218 162 226 120 356 352 345 323 306 304 318 308 301 280 268 269
155 164 174 211 227 227 227 255 206 173 206 198 193 197 199 196 189 187 185 181 181 180 180 178 179 188 191 200 205 219 233 248 255 244 216 209 140 85 48 9 342 327 335 327 310 293 267 276 273
197 200 200 206 213 216 184 243 244 92 167 209 187 186 190 191 186 182 181 179 178 179 177 175 176 185 191 199 206 212 220 220 224 240 209 247 122 70 36 7 352 352 348 331 327 311 316 292 273
210 220 228 233 222 186 177 231 180 109 143 180 176 176 179 184 183 180 180 178 179 180 177 176 176 182 187 192 198 204 206 216 208 209 269 66 27 41 32 22 18 8 355 352 356 329 333 338 313
202 223 242 245 249 244 199 203 202 178 176 169 165 170 177 179 177 176 176 176 176 179 180 176 171 174 181 186 185 189 188 202 170 144 185 91 69 61 54 39 31 23 18 7 352 22 3 0 337
243 215 218 236 233 235 219 222 205 181 175 168 168 170 172 174 172 172 172 173 172 174 171 171 169 174 177 180 183 172 168 164 154 147 104 83 71 53 60 54 43 28 25 20 7 44 42 27 21
192 206 219 230 240 247 230 205 129 175 186 183 169 165 165 168 168 165 164 165 166 168 166 165 165 168 170 171 169 164 161 154 148 139 125 118 102 83 70 60 46 39 36 35 35 36 35 30 30
212 210 208 218 219 244 259 169 110 151 174 168 156 148 152 159 159 158 159 161 164 166 165 164 165 166 166 164 163 160 155 149 150 140 129 125 115 101 90 80 68 59 53 47 45 37 38 38 38